EDW15T LSGG-LSZH

Flight info

Callsign EDW15T
Flight time 0h 37m
Altitude 17000
Route SOSAL N871 BERSU
Aircraft A339/H-SADE1E2E3GHIJ3J5M1P2RWXY/LB2D1

Departure

Time 2026-02-20 22:28
Airport Geneva International Airport (LSGG)

Arrival

Time 2026-02-20 23:05
Airport Zürich Airport (LSZH)
Time Latitude Longitude Altitude Speed Heading
2026-02-20 22:14 46.22949 6.10447 1391 ft 0 kts 135°
2026-02-20 22:18 46.22950 6.10445 1390 ft 1 kts 136°
2026-02-20 22:18 46.22958 6.10435 1389 ft 0 kts 135°
2026-02-20 22:18 46.22967 6.10419 1389 ft 2 kts 112°
2026-02-20 22:19 46.22970 6.10398 1388 ft 2 kts 91°
2026-02-20 22:19 46.22968 6.10377 1389 ft 2 kts 68°
2026-02-20 22:19 46.22961 6.10360 1389 ft 0 kts 47°
2026-02-20 22:19 46.22957 6.10353 1390 ft 1 kts 43°
2026-02-20 22:20 46.22956 6.10352 1390 ft 0 kts 44°
2026-02-20 22:21 46.22961 6.10360 1390 ft 7 kts 44°
2026-02-20 22:21 46.23041 6.10476 1388 ft 22 kts 46°
2026-02-20 22:22 46.23151 6.10637 1389 ft 18 kts 44°
2026-02-20 22:22 46.23222 6.10595 1387 ft 12 kts 289°
2026-02-20 22:22 46.23280 6.10526 1384 ft 16 kts 316°
2026-02-20 22:22 46.23363 6.10591 1382 ft 19 kts 44°
2026-02-20 22:23 46.23486 6.10759 1380 ft 25 kts 45°
2026-02-20 22:23 46.23613 6.10946 1378 ft 23 kts 45°
2026-02-20 22:23 46.23724 6.11108 1375 ft 25 kts 45°
2026-02-20 22:23 46.23842 6.11280 1372 ft 25 kts 45°
2026-02-20 22:24 46.23975 6.11476 1371 ft 29 kts 45°
2026-02-20 22:24 46.24127 6.11700 1367 ft 33 kts 45°
2026-02-20 22:24 46.24286 6.11934 1366 ft 30 kts 45°
2026-02-20 22:24 46.24442 6.12162 1366 ft 32 kts 45°
2026-02-20 22:25 46.24606 6.12402 1366 ft 34 kts 46°
2026-02-20 22:25 46.24763 6.12633 1363 ft 25 kts 43°
2026-02-20 22:25 46.24853 6.12691 1361 ft 2 kts 17°
2026-02-20 22:25 46.24855 6.12692 1361 ft 0 kts 17°
2026-02-20 22:26 46.24857 6.12693 1361 ft 1 kts 17°
2026-02-20 22:26 46.24934 6.12728 1358 ft 15 kts 12°
2026-02-20 22:26 46.24950 6.12574 1362 ft 0 kts 226°
2026-02-20 22:27 46.24844 6.12419 1364 ft 55 kts 226°
2026-02-20 22:27 46.24406 6.11775 1367 ft 122 kts 225°
2026-02-20 22:28 46.23685 6.10713 1383 ft 173 kts 226°
2026-02-20 22:28 46.22826 6.09424 1790 ft 186 kts 226°
2026-02-20 22:28 46.21938 6.08125 2453 ft 183 kts 226°
2026-02-20 22:28 46.21039 6.06818 3074 ft 183 kts 227°
2026-02-20 22:29 46.20137 6.05508 3604 ft 189 kts 227°
2026-02-20 22:29 46.19187 6.04117 3947 ft 207 kts 227°
2026-02-20 22:30 46.14344 5.97009 5832 ft 271 kts 228°
2026-02-20 22:30 46.13043 5.95065 6594 ft 275 kts 228°
2026-02-20 22:30 46.11705 5.93079 7360 ft 277 kts 230°
2026-02-20 22:31 46.10653 5.90781 8075 ft 274 kts 258°
2026-02-20 22:31 46.10564 5.88126 8823 ft 267 kts 285°
2026-02-20 22:31 46.11260 5.85666 9463 ft 267 kts 308°
2026-02-20 22:31 46.12562 5.83793 10131 ft 266 kts 329°
2026-02-20 22:32 46.14257 5.82801 10823 ft 267 kts 350°
2026-02-20 22:32 46.16145 5.82855 11236 ft 283 kts 12°
2026-02-20 22:32 46.17976 5.84163 11547 ft 305 kts 37°
2026-02-20 22:32 46.19333 5.86674 11906 ft 328 kts 56°
2026-02-20 22:33 46.20463 5.89599 12177 ft 343 kts 56°
2026-02-20 22:33 46.21677 5.92690 12424 ft 358 kts 56°
2026-02-20 22:33 46.22946 5.95899 12686 ft 372 kts 56°
2026-02-20 22:33 46.24253 5.99193 12933 ft 386 kts 56°
2026-02-20 22:34 46.25628 6.02567 13168 ft 397 kts 53°
2026-02-20 22:34 46.27248 6.05816 13585 ft 400 kts 47°
2026-02-20 22:34 46.29124 6.08838 14106 ft 401 kts 40°
2026-02-20 22:34 46.31164 6.11653 14576 ft 405 kts 38°
2026-02-20 22:35 46.33255 6.14450 15082 ft 408 kts 38°
2026-02-20 22:35 46.35332 6.17226 15635 ft 409 kts 37°
2026-02-20 22:35 46.37431 6.19990 16164 ft 411 kts 36°
2026-02-20 22:35 46.39588 6.22795 16590 ft 415 kts 36°
2026-02-20 22:36 46.41767 6.25634 17035 ft 419 kts 36°
2026-02-20 22:36 46.43907 6.28475 17316 ft 422 kts 37°
2026-02-20 22:36 46.46092 6.31405 17329 ft 421 kts 37°
2026-02-20 22:36 46.48229 6.34274 17398 ft 422 kts 37°
2026-02-20 22:37 46.50417 6.37209 17327 ft 423 kts 37°
2026-02-20 22:37 46.52566 6.40095 17353 ft 422 kts 37°
2026-02-20 22:37 46.54677 6.43118 17366 ft 428 kts 45°
2026-02-20 22:37 46.56185 6.46911 17348 ft 443 kts 64°
2026-02-20 22:38 46.56811 6.51358 17353 ft 454 kts 83°
2026-02-20 22:38 46.56742 6.55954 17295 ft 457 kts 88°
2026-02-20 22:38 46.56580 6.60569 17408 ft 456 kts 89°
2026-02-20 22:38 46.56423 6.65113 17396 ft 457 kts 89°
2026-02-20 22:39 46.56283 6.69779 17333 ft 456 kts 89°
2026-02-20 22:39 46.56160 6.74353 17369 ft 455 kts 89°
2026-02-20 22:39 46.56045 6.78906 17358 ft 456 kts 89°
2026-02-20 22:39 46.55958 6.83549 17364 ft 454 kts 85°
2026-02-20 22:40 46.56446 6.87998 17333 ft 444 kts 68°
2026-02-20 22:40 46.57715 6.92004 17295 ft 433 kts 52°
2026-02-20 22:40 46.59529 6.95474 17363 ft 428 kts 45°
2026-02-20 22:40 46.61457 6.98846 17344 ft 430 kts 45°
2026-02-20 22:41 46.63360 7.02168 17317 ft 429 kts 46°
2026-02-20 22:41 46.65282 7.05569 17321 ft 429 kts 45°
2026-02-20 22:41 46.67159 7.08925 17357 ft 429 kts 46°
2026-02-20 22:42 46.70936 7.15730 17348 ft 429 kts 46°
2026-02-20 22:42 46.72804 7.19114 17335 ft 430 kts 46°
2026-02-20 22:42 46.74688 7.22534 17322 ft 429 kts 46°
2026-02-20 22:42 46.76572 7.25958 17318 ft 430 kts 46°
2026-02-20 22:43 46.78429 7.29336 17343 ft 430 kts 46°
2026-02-20 22:43 46.80315 7.32772 17353 ft 431 kts 46°
2026-02-20 22:43 46.82200 7.36212 17352 ft 430 kts 46°
2026-02-20 22:43 46.84055 7.39606 17360 ft 429 kts 46°
2026-02-20 22:44 46.85929 7.43032 17372 ft 429 kts 46°
2026-02-20 22:44 46.87793 7.46448 17368 ft 430 kts 46°
2026-02-20 22:44 46.89653 7.49868 17358 ft 429 kts 46°
2026-02-20 22:44 46.91513 7.53293 17368 ft 429 kts 46°
2026-02-20 22:45 46.93376 7.56728 17365 ft 430 kts 46°
2026-02-20 22:45 46.95250 7.60185 17361 ft 429 kts 46°
2026-02-20 22:45 46.97098 7.63603 17364 ft 430 kts 46°
2026-02-20 22:45 46.98944 7.67016 17375 ft 430 kts 47°
2026-02-20 22:46 47.00804 7.70458 17349 ft 430 kts 47°
2026-02-20 22:46 47.02672 7.73915 17367 ft 430 kts 47°
2026-02-20 22:46 47.04499 7.77298 17363 ft 431 kts 47°
2026-02-20 22:46 47.06343 7.80721 17335 ft 431 kts 47°
2026-02-20 22:47 47.08207 7.84187 17301 ft 431 kts 47°
2026-02-20 22:47 47.10082 7.87678 17328 ft 431 kts 47°
2026-02-20 22:47 47.11897 7.91143 17250 ft 433 kts 50°
2026-02-20 22:47 47.13568 7.94839 16986 ft 432 kts 54°
2026-02-20 22:48 47.15033 7.98724 16730 ft 433 kts 59°
2026-02-20 22:48 47.16348 8.02747 16452 ft 433 kts 61°
2026-02-20 22:48 47.17588 8.06672 16115 ft 431 kts 61°
2026-02-20 22:48 47.18856 8.10693 15719 ft 428 kts 61°
2026-02-20 22:49 47.20187 8.14574 15221 ft 421 kts 53°
2026-02-20 22:49 47.22143 8.17617 14684 ft 405 kts 32°
2026-02-20 22:49 47.24587 8.19464 14154 ft 392 kts 14°
2026-02-20 22:49 47.27251 8.20084 13591 ft 382 kts 357°
2026-02-20 22:50 47.29817 8.19518 13028 ft 374 kts 340°
2026-02-20 22:50 47.32170 8.17998 12449 ft 370 kts 331°
2026-02-20 22:50 47.34407 8.16287 12075 ft 360 kts 331°
2026-02-20 22:50 47.36626 8.14582 11873 ft 348 kts 331°
2026-02-20 22:51 47.38703 8.13004 11645 ft 337 kts 331°
2026-02-20 22:51 47.40780 8.11438 11347 ft 329 kts 331°
2026-02-20 22:51 47.42777 8.09943 11181 ft 317 kts 332°
2026-02-20 22:51 47.44892 8.09073 10943 ft 313 kts 356°
2026-02-20 22:52 47.46988 8.09802 10746 ft 311 kts 25°
2026-02-20 22:52 47.48634 8.11836 10612 ft 300 kts 51°
2026-02-20 22:52 47.49498 8.14516 10452 ft 286 kts 76°
2026-02-20 22:52 47.49580 8.17370 10331 ft 268 kts 95°
2026-02-20 22:53 47.49340 8.20013 10207 ft 250 kts 97°
2026-02-20 22:53 47.49089 8.22511 9924 ft 243 kts 97°
2026-02-20 22:53 47.48853 8.24975 9674 ft 243 kts 96°
2026-02-20 22:53 47.48628 8.27454 9401 ft 243 kts 96°
2026-02-20 22:54 47.48412 8.29914 9140 ft 242 kts 96°
2026-02-20 22:54 47.48198 8.32395 8903 ft 241 kts 96°
2026-02-20 22:54 47.47991 8.34834 8674 ft 240 kts 96°
2026-02-20 22:54 47.47784 8.37278 8420 ft 240 kts 96°
2026-02-20 22:55 47.47576 8.39727 8177 ft 238 kts 96°
2026-02-20 22:55 47.47372 8.42130 7953 ft 236 kts 96°
2026-02-20 22:55 47.47167 8.44554 7719 ft 235 kts 96°
2026-02-20 22:55 47.46962 8.46953 7481 ft 235 kts 96°
2026-02-20 22:56 47.46760 8.49322 7242 ft 235 kts 97°
2026-02-20 22:56 47.46556 8.51724 7000 ft 235 kts 97°
2026-02-20 22:56 47.46352 8.54112 6759 ft 234 kts 97°
2026-02-20 22:56 47.46144 8.56517 6524 ft 232 kts 97°
2026-02-20 22:57 47.45940 8.58869 6297 ft 231 kts 97°
2026-02-20 22:57 47.45736 8.61226 6068 ft 228 kts 97°
2026-02-20 22:57 47.45537 8.63546 5843 ft 229 kts 97°
2026-02-20 22:57 47.45334 8.65872 5616 ft 225 kts 97°
2026-02-20 22:58 47.45135 8.68152 5401 ft 222 kts 97°
2026-02-20 22:58 47.44937 8.70429 5361 ft 224 kts 97°
2026-02-20 22:58 47.44734 8.72734 5356 ft 224 kts 97°
2026-02-20 22:58 47.44534 8.75003 5353 ft 223 kts 97°
2026-02-20 22:59 47.44334 8.77273 5352 ft 222 kts 97°
2026-02-20 22:59 47.44137 8.79527 5349 ft 223 kts 97°
2026-02-20 22:59 47.43905 8.81808 5346 ft 226 kts 108°
2026-02-20 22:59 47.43153 8.83792 5334 ft 218 kts 141°
2026-02-20 23:00 47.41834 8.84769 5347 ft 210 kts 177°
2026-02-20 23:00 47.40440 8.84459 5348 ft 201 kts 214°
2026-02-20 23:00 47.39521 8.83067 5373 ft 182 kts 248°
2026-02-20 23:00 47.39425 8.81284 5093 ft 174 kts 284°
2026-02-20 23:01 47.39866 8.79627 4835 ft 169 kts 293°
2026-02-20 23:01 47.40363 8.78089 4576 ft 165 kts 294°
2026-02-20 23:01 47.40861 8.76581 4327 ft 159 kts 295°
2026-02-20 23:01 47.41341 8.75136 4106 ft 157 kts 295°
2026-02-20 23:02 47.41822 8.73689 3906 ft 156 kts 296°
2026-02-20 23:02 47.42298 8.72251 3715 ft 156 kts 296°
2026-02-20 23:02 47.42781 8.70795 3494 ft 156 kts 297°
2026-02-20 23:02 47.43262 8.69349 3279 ft 155 kts 295°
2026-02-20 23:03 47.43740 8.67909 3054 ft 154 kts 295°
2026-02-20 23:03 47.44197 8.66534 2837 ft 144 kts 295°
2026-02-20 23:03 47.44620 8.65204 2634 ft 142 kts 291°
2026-02-20 23:03 47.44942 8.63835 2435 ft 141 kts 284°
2026-02-20 23:04 47.45164 8.62413 2238 ft 141 kts 281°
2026-02-20 23:04 47.45330 8.60981 2025 ft 141 kts 279°
2026-02-20 23:04 47.45488 8.59551 1814 ft 140 kts 278°
2026-02-20 23:04 47.45592 8.58133 1618 ft 140 kts 275°
2026-02-20 23:05 47.45684 8.56714 1423 ft 140 kts 275°
2026-02-20 23:05 47.45784 8.55282 1385 ft 133 kts 277°
2026-02-20 23:05 47.45859 8.54243 1385 ft 72 kts 276°
2026-02-20 23:05 47.45846 8.53774 1385 ft 35 kts 213°
2026-02-20 23:06 47.45686 8.53943 1388 ft 32 kts 109°
2026-02-20 23:06 47.45617 8.54253 1389 ft 30 kts 109°